Flag for Canada Weather past 2 weeks in Morden, Manitoba, Canada

Now
56 °F

Cool.


Feels Like: 53 °F
Forecast: 38 / 72 °F
Wind: 12 mph from Southeast

Location: Morden CDA CS

Current Time: Sep 18, 2014 at 11:47:38 AM

Latest Report: Sep 18, 2014 at 11:00 AM


Visibility: N/A

Pressure: 29.91 "Hg

Humidity: 76%

Dew point: 48 °F

Location of MordenLocation

Historic Weather in Morden — Graph

°F

Morden temperature yesterday

Maximum temperature yesterday: 57 °F (at 2:00 AM)
Minimum temperature yesterday: 40 °F (at 11:00 PM)
Average temperature yesterday: 48 °F

Past Weeks' High & Low Weather Summary

 TemperatureHumidityPressure
High78 °F (Sep 6, 4:00 PM)99% (Sep 4, 4:00 AM)30.47 "Hg (Sep 4, 4:00 AM)
Low35 °F (Sep 18, 7:00 AM)27% (Sep 6, 4:00 PM)29.49 "Hg (Sep 8, 10:00 AM)
Average53 °F67%30.04 "Hg
* Reported Sep 3 10:00 AM — Sep 18 10:00 AM, Morden, Weather by CustomWeather, © 2014

Note: Actual official high and low records may vary slightly from our data, if they occured in-between our weather recording intervals... More about our weather records

Advertising

Morden weather history for previous 24 hours

 ConditionsComfort  
Time TempWeatherWind HumidityBarometerVisibility
10:00 AM
Sep 18
49 °FCool.9 mph89%29.94 "HgN/A
9:00 AM42 °FQuite cool.7 mph98%29.96 "HgN/A
8:00 AM35 °FChilly.3 mph99%29.98 "HgN/A
7:00 AM35 °FChilly.2 mph99%30.00 "HgN/A
6:00 AM35 °FChilly.1 mph98%30.01 "HgN/A
5:00 AM36 °FChilly.2 mph98%30.02 "HgN/A
4:00 AM35 °FChilly.1 mph98%30.04 "HgN/A
3:00 AM36 °FChilly.No wind96%30.07 "HgN/A
2:00 AM37 °FChilly.1 mph96%30.08 "HgN/A
1:00 AM37 °FChilly.1 mph94%30.09 "HgN/A
12:00 AM39 °FChilly.2 mph91%30.09 "HgN/A
11:00 PM
Sep 17
40 °FQuite cool.2 mph87%30.10 "HgN/A
10:00 PM42 °FQuite cool.1 mph84%30.10 "HgN/A
9:00 PM45 °FCool.5 mph78%30.09 "HgN/A
8:00 PM48 °FCool.6 mph72%30.09 "HgN/A
7:00 PM52 °FCool.9 mph65%30.07 "HgN/A
6:00 PM54 °FCool.8 mph61%30.07 "HgN/A
5:00 PM53 °FCool.9 mph62%30.08 "HgN/A
4:00 PM54 °FCool.9 mph63%30.08 "HgN/A
3:00 PM51 °FCool.8 mph67%30.09 "HgN/A
2:00 PM48 °FCool.10 mph75%30.09 "HgN/A
1:00 PM47 °FCool.10 mph78%30.09 "HgN/A
12:00 PM46 °FCool.10 mph80%30.08 "HgN/A
11:00 AM45 °FCool.12 mph84%30.07 "HgN/A
Weather by CustomWeather, © 2014

See weather overviewHow to use our weather pages